SCP
0 0 0 0 0 0 1 1 1 0 0 0 0 0 0 0 0 0 0 0 0 0 0 0 0 0 0 0 0 0 0 0 0 0 0 0 0 0 0 0 0 0 0
0 0 0 0 0 0 0 0 0 0 0 0 0 0 0 0 0 0 0 0 0 0 0 0 0 0 0 0 0 0 0 0 0 0 0 0 0 0 0 0 0 0 0
0 0 0 0 0 0 0 0 0 0 0 0 0 0 0 0 0 0 0 0 0 0 0 0 0 0 0 0 -0 0 0 0 0 0 0 0 0 0 0 0 0 0 0
0 0 0 0 0 0 0 0 0 0 0 0 0 0 0 0 0 0 0 0 0 0 0 1 1 0 0 0 1 1 0 0 0 0 0 0 0 0 0 0 0 0 0
0 0 0 0 0 0 0 0 0 0 0 0 0 0 0 0 0 0 0 0 0 0 1 1 1 1 1 1 1 0 0 0 0 0 0 0 0 0 0 0 0 0 0
0 0 0 0 0 0 0 0 0 0 0 0 0 0 0 0 0 0 0 0 0 0 0 0 0 0 1 1 1 1 1 0 0 1 1 0 0 0 0 0 0 0 0
0 0 0 0 0 0 0 0 0 0 0 0 0 0 0 0 0 0 0 0 0 0 0 0 0 0 0 0 1 1 1 0 0 0 0 0 0 0 0 0 0 0 0
-0 -0 0 0 0 0 0 0 0 0 0 0 0 0 0 0 0 0 0 0 0 0 0 0 0 0 0 0 0 0 0 0 0 0 0 0 0 0 0 0 0 0 0
0 0 0 0 0 -0 -0 -0 -0 0 0 0 0 0 0 0 0 0 0 0 0 0 0 0 0 0 0 0 0 0 0 0 0 0 0 0 0 0 0 0 0 0 0
0 0 0 0 0 0 -0 -0 -0 0 0 0 0 0 0 0 0 0 0 0 0 0 0 0 0 0 0 0 0 0 0 0 0 0 0 0 0 0 0 0 0 0 0
0 0 0 0 0 0 -0 -0 0 -0 0 0 0 0 0 0 0 0 0 0 0 0 0 0 0 0 0 0 0 0 0 0 0 0 0 0 0 0 0 0 0 0 0
0 0 0 0 0 0 0 0 0 0 0 0 0 0 0 0 0 0 0 0 0 0 0 0 0 0 0 0 0 0 0 0 0 0 0 0 0 0 0 0 0 0 0
0 0 0 0 0 0 0 0 0 0 0 0 0 0 0 0 0 0 0 0 0 0 0 0 0 0 0 0 0 0 0 0 0 0 0 0 0 0 0 0 0 0 0
0 0 0 0 0 0 0 0 0 0 0 0 0 0 0 0 0 0 0 0 0 0 0 0 0 0 0 0 0 0 0 0 0 0 0 0 0 0 0 0 0 0 0
0 0 0 0 0 0 0 0 0 0 0 0 0 0 0 0 0 0 0 0 0 0 0 0 0 0 0 0 0 0 0 0 0 0 0 0 0 0 0 0 0 0 0
0 0 0 0 0 0 0 0 0 0 0 0 0 0 0 0 0 0 0 0 0 0 0 0 0 0 0 0 0 0 0 0 0 0 0 0 0 0 0 0 0 0 0
0 0 0 0 0 0 0 0 0 0 0 0 0 0 0 0 0 0 0 0 0 0 0 0 0 0 0 0 0 0 0 0 0 0 0 0 0 0 0 0 0 0 0
0 0 0 0 0 0 0 0 0 0 0 0 0 0 0 0 0 0 0 0 0 0 0 0 0 0 0 0 0 0 0 0 0 0 0 0 0 0 0 0 0 0 0
0 0 0 0 0 0 0 0 0 0 0 0 0 0 0 0 0 0 0 0 0 0 0 0 0 0 0 0 0 0 0 0 0 0 0 0 0 0 0 0 0 0 0
0 0 0 0 0 0 0 0 0 0 0 0 0 0 0 0 0 0 0 0 0 0 0 0 0 0 0 0 0 0 0 0 0 0 0 0 0 0 0 0 0 0 0
0 0 0 0 0 0 0 0 0 0 0 0 0 0 0 0 0 0 0 0 0 0 0 0 0 0 0 0 0 0 0 0 0 0 0 0 0 0 0 0 0 0 0
0 0 0 0 0 0 0 0 0 0 0 0 0 0 0 0 0 0 0 0 0 0 0 0 0 0 0 0 0 0 0 0 0 0 0 0 0 0 0 0 0 0 -0
0 0 0 0 0 0 -0 -0 0 0 0 0 0 0 0 0 0 0 0 0 0 0 0 0 0 0 0 0 0 0 0 0 0 0 0 0 0 0 0 0 0 0 -0
0 0 0 0 0 0 0 0 0 0 0 0 0 0 0 0 0 0 0 0 0 0 0 0 0 0 0 0 0 0 -0 -0 0 0 0 0 -0 0 0 -0 0 0 0
0 0 0 -0 -0 0 0 0 0 0 0 0 0 0 0 0 0 0 0 0 0 0 0 0 0 0 0 0 0 0 -0 -0 0 0 -0 0 0 0 0 -0 -0 0 -0
0 0 0 0 0 -0 -0 -0 0 0 0 0 0 0 0 0 0 0 0 0 0 0 0 0 0 0 0 0 -0 -0 -0 -0 0 0 0 0 -0 0 0 0 -0 -0 -0
Wind_Speed_500mb
35 30 35 35 36 38 35 34 32 29 26 24 25 24 20 18 14 16 18 18 16 23 21 22 24 24 27 23 25 21 24 27 30 28 29 29 31 33 36 40 40 37 37
25 29 36 39 35 33 34 33 32 30 26 23 18 20 22 24 22 23 21 20 19 18 14 21 30 27 18 23 25 28 26 28 31 32 32 34 35 35 40 51 43 42 37
22 30 31 32 29 30 28 28 25 23 24 26 24 26 26 24 27 27 26 20 17 17 17 16 22 20 17 22 19 28 29 30 31 26 26 29 33 35 50 33 30 30 20
18 16 17 27 30 26 24 24 22 19 20 24 22 18 18 20 23 27 30 28 29 26 18 16 22 18 17 20 21 30 33 26 26 25 20 22 26 29 17 27 25 19 29
25 23 20 16 12 15 15 13 10 12 13 13 13 12 13 18 21 24 23 18 14 15 12 8 9 13 20 27 29 28 26 21 22 21 19 20 16 12 17 20 21 28 35
40 36 26 22 20 18 15 8 15 19 19 16 16 16 14 17 10 16 17 11 11 10 6 5 6 9 17 22 17 17 26 28 27 25 22 23 21 17 18 17 31 32 27
40 42 46 41 28 26 17 10 13 26 23 21 29 29 23 8 16 3 11 10 10 9 6 6 10 13 16 15 21 24 23 23 23 20 17 14 22 21 24 30 20 21 27
55 47 50 57 69 54 54 44 25 27 28 25 30 40 17 24 8 13 4 6 13 11 8 11 10 10 8 7 14 19 19 15 7 2 6 9 17 20 22 19 23 29 30
59 44 40 41 45 50 77 88 83 51 34 40 36 28 16 4 17 5 13 20 12 10 6 5 2 3 5 9 11 11 8 4 4 1 8 11 15 14 18 25 25 29 29
46 46 54 56 45 44 41 40 38 61 60 65 62 45 26 27 11 6 8 21 19 12 9 11 9 9 9 8 6 4 6 7 8 8 4 11 14 18 21 26 30 34 33
47 51 53 53 47 38 39 30 32 34 48 54 47 30 35 25 29 30 15 5 11 16 16 17 14 11 7 7 5 7 2 3 7 7 9 14 16 23 29 34 35 36 35
57 56 57 57 48 45 41 37 38 32 36 44 41 37 28 28 23 24 21 18 22 18 14 13 12 10 7 2 3 6 6 7 9 11 13 18 25 27 30 30 30 31 33
63 67 63 59 55 50 48 44 39 45 49 51 38 35 27 28 32 28 28 20 22 21 18 11 10 9 5 6 5 6 1 9 11 13 20 24 27 28 28 28 28 30 34
60 55 53 59 60 61 59 57 52 44 44 46 53 51 44 35 32 28 27 23 16 16 20 19 13 10 11 8 4 2 3 12 12 19 22 22 22 24 22 26 29 29 30
53 54 59 51 48 48 49 51 61 59 57 54 53 57 57 62 53 42 35 33 34 29 25 24 19 19 19 16 10 9 11 9 15 20 18 18 12 16 21 24 24 25 26
56 54 54 54 52 52 54 57 57 63 65 65 65 72 71 72 70 66 55 43 40 39 37 32 26 21 26 19 17 15 12 13 16 14 10 9 13 15 19 22 26 28 27
58 70 69 65 60 59 56 53 50 47 49 50 49 44 40 43 56 71 70 63 46 42 39 34 28 24 28 24 20 18 11 11 14 12 4 8 11 14 17 22 26 29 24
43 40 43 46 50 52 48 45 43 45 46 42 38 36 36 29 34 39 49 52 50 46 49 43 35 33 32 24 24 21 10 2 7 6 2 9 12 16 21 25 29 31 23
39 38 34 35 39 45 47 46 50 48 42 39 37 32 30 27 25 30 37 43 44 46 50 42 41 36 37 25 22 22 18 9 7 6 3 9 15 20 20 27 29 30 27
39 39 35 36 35 36 36 39 39 42 40 37 32 30 28 28 23 23 31 42 42 44 49 42 34 36 32 33 31 28 23 16 13 11 5 8 18 22 25 28 25 26 27
41 37 37 34 35 34 34 36 37 36 37 36 33 31 27 29 27 26 23 41 46 49 44 45 45 38 36 36 39 30 29 23 20 14 6 10 18 19 18 21 25 29 32
35 38 32 31 34 33 29 26 27 31 32 35 36 33 24 24 18 21 26 34 44 55 55 50 54 35 36 31 31 35 30 33 28 19 12 7 16 17 21 25 38 38 34
37 37 27 27 29 26 22 26 29 32 33 33 36 34 36 24 21 15 23 33 42 51 41 43 33 33 26 28 28 39 37 37 27 23 14 11 13 15 22 36 37 39 44
36 33 29 27 31 30 28 25 26 27 31 33 31 30 34 34 23 19 22 25 52 47 46 36 23 16 9 23 22 27 27 30 25 24 18 16 15 12 18 29 35 40 45
36 32 30 30 28 31 27 22 25 27 30 29 30 32 32 30 29 26 26 30 36 49 43 34 18 18 18 12 13 17 33 39 34 33 20 14 10 8 12 22 28 42 45
31 30 30 31 32 30 27 22 24 25 22 20 26 29 35 30 31 34 38 38 37 42 38 37 37 27 26 18 7 11 34 44 43 33 20 16 11 5 6 15 23 36 41
Wind_Direction_500mb
270 285 287 286 288 279 275 275 270 255 256 266 284 285 274 283 299 300 283 294 283 271 282 297 281 277 283 283 268 287 295 290 288 286 285 286 287 289 297 290 286 288 289
306 304 296 290 283 278 274 273 267 263 261 268 276 281 278 276 275 279 283 301 299 273 275 272 262 284 313 285 288 283 277 281 285 285 285 282 286 293 297 280 284 283 283
323 313 295 278 267 267 267 264 261 252 254 264 270 277 281 279 281 279 278 274 281 273 274 295 268 261 285 292 288 279 279 280 285 283 284 292 291 288 272 272 281 271 277
296 291 300 292 279 270 263 255 253 259 259 263 267 272 287 281 285 287 289 287 279 278 279 297 284 264 286 266 274 271 277 281 286 294 288 282 287 282 260 271 261 254 267
271 271 272 256 271 268 250 251 263 268 267 266 266 282 311 317 306 303 309 309 288 262 264 243 240 252 245 269 284 275 274 285 277 272 263 266 255 185 251 271 253 264 278
284 269 252 236 222 202 207 237 276 299 318 310 302 299 309 314 317 321 331 354 19 42 81 137 195 228 273 275 279 266 280 282 285 278 267 256 216 236 263 274 264 276 277
287 281 275 252 217 217 250 295 336 325 325 324 329 321 332 170 305 314 22 11 7 0 352 296 270 245 259 274 274 276 289 295 293 285 259 211 219 258 286 287 271 274 285
313 297 289 284 271 276 288 295 315 300 295 306 321 323 315 318 172 330 341 320 321 315 298 286 264 261 274 297 302 309 307 314 308 299 169 222 259 277 280 274 268 283 288
304 308 304 298 293 287 283 289 293 282 289 300 292 281 282 276 304 210 310 299 301 288 284 277 247 320 330 326 316 317 334 30 57 79 262 283 288 282 269 276 284 296 295
291 297 300 302 302 288 278 278 293 263 275 282 274 266 259 266 308 263 320 299 293 271 241 255 277 299 319 331 357 31 108 64 31 11 347 303 283 283 290 294 300 303 302
284 288 288 288 295 293 284 293 267 260 258 258 255 251 259 256 269 285 322 256 261 251 248 238 255 284 292 334 35 114 67 339 329 313 306 300 300 299 302 302 304 305 306
271 273 280 278 278 278 283 283 280 270 254 259 262 273 271 270 253 267 282 272 274 263 244 235 257 270 271 259 86 121 330 324 338 317 306 312 313 306 310 311 311 312 308
280 274 271 266 267 266 265 270 271 272 276 268 264 267 268 266 262 260 269 264 251 242 244 255 244 221 217 180 110 132 344 303 301 310 310 316 322 316 319 321 317 312 308
278 271 269 266 263 264 259 260 259 260 259 260 263 265 266 264 263 260 262 260 268 244 242 243 241 193 204 205 170 217 273 296 305 304 306 309 321 320 322 319 315 312 312
283 275 268 259 260 260 258 260 261 260 259 262 263 263 263 264 267 264 258 254 252 261 258 251 223 201 213 224 225 238 254 280 296 298 302 305 326 334 333 333 327 331 331
272 264 260 260 261 264 268 271 272 267 271 268 269 271 269 263 260 262 258 254 253 251 253 249 229 221 215 223 230 238 265 274 286 291 308 338 350 344 338 340 337 332 329
282 270 267 265 260 259 265 267 267 263 263 267 263 264 267 262 252 251 255 256 257 240 232 225 225 213 211 219 240 243 240 329 321 322 17 2 7 355 354 351 344 338 340
294 290 276 265 258 258 255 255 257 261 262 259 260 254 255 256 245 237 239 244 245 231 225 220 209 193 205 205 230 233 243 268 312 285 51 46 23 14 9 358 353 355 360
302 295 285 274 264 262 263 262 256 256 255 259 253 251 250 243 240 237 231 226 223 225 219 206 210 201 197 214 230 231 243 229 219 204 151 53 30 23 9 1 10 12 9
301 295 291 283 278 268 258 256 253 247 246 251 245 249 241 235 246 245 234 222 216 216 210 197 225 198 191 202 218 227 217 210 193 182 145 48 31 36 31 24 21 13 11
304 291 287 281 279 270 268 254 252 248 242 240 240 241 240 242 248 251 248 215 209 210 202 189 201 193 196 200 214 217 224 209 190 183 138 56 48 39 33 26 24 24 15
301 302 292 285 274 267 264 250 248 248 242 239 241 241 236 218 217 236 235 213 205 206 200 195 204 205 206 205 208 217 222 197 187 184 163 86 75 48 36 37 34 20 18
303 303 288 283 276 272 260 249 245 244 242 242 243 236 220 213 223 237 217 184 191 195 199 200 204 212 199 192 213 212 221 213 198 175 156 110 102 55 30 35 29 23 26
309 293 294 288 272 265 258 248 246 245 241 237 232 227 216 208 220 216 193 166 161 158 153 161 166 168 185 206 231 233 227 196 180 166 149 150 123 57 35 37 29 25 24
304 299 291 282 278 266 258 252 231 226 231 224 227 215 199 200 212 204 190 170 155 158 171 179 185 179 178 192 198 190 188 174 169 169 171 162 126 87 43 32 26 22 20
305 302 292 287 278 265 261 231 214 216 203 213 210 198 189 188 195 198 186 179 162 154 155 174 203 197 187 187 162 155 177 167 166 167 178 170 164 125 21 16 19 12 14
Wind_Speed_850mb
35 30 35 35 36 38 35 34 32 29 26 24 25 24 20 18 14 16 18 18 16 23 21 22 24 24 27 23 25 21 24 27 30 28 29 29 31 33 36 40 40 37 37
25 29 36 39 35 33 34 33 32 30 26 23 18 20 22 24 22 23 21 20 19 18 14 21 30 27 18 23 25 28 26 28 31 32 32 34 35 35 40 51 43 42 37
22 30 31 32 29 30 28 28 25 23 24 26 24 26 26 24 27 27 26 20 17 17 17 16 22 20 17 22 19 28 29 30 31 26 26 29 33 35 50 33 30 30 20
18 16 17 27 30 26 24 24 22 19 20 24 22 18 18 20 23 27 30 28 29 26 18 16 22 18 17 20 21 30 33 26 26 25 20 22 26 29 17 27 25 19 29
25 23 20 16 12 15 15 13 10 12 13 13 13 12 13 18 21 24 23 18 14 15 12 8 9 13 20 27 29 28 26 21 22 21 19 20 16 12 17 20 21 28 35
40 36 26 22 20 18 15 8 15 19 19 16 16 16 14 17 10 16 17 11 11 10 6 5 6 9 17 22 17 17 26 28 27 25 22 23 21 17 18 17 31 32 27
40 42 46 41 28 26 17 10 13 26 23 21 29 29 23 8 16 3 11 10 10 9 6 6 10 13 16 15 21 24 23 23 23 20 17 14 22 21 24 30 20 21 27
55 47 50 57 69 54 54 44 25 27 28 25 30 40 17 24 8 13 4 6 13 11 8 11 10 10 8 7 14 19 19 15 7 2 6 9 17 20 22 19 23 29 30
59 44 40 41 45 50 77 88 83 51 34 40 36 28 16 4 17 5 13 20 12 10 6 5 2 3 5 9 11 11 8 4 4 1 8 11 15 14 18 25 25 29 29
46 46 54 56 45 44 41 40 38 61 60 65 62 45 26 27 11 6 8 21 19 12 9 11 9 9 9 8 6 4 6 7 8 8 4 11 14 18 21 26 30 34 33
47 51 53 53 47 38 39 30 32 34 48 54 47 30 35 25 29 30 15 5 11 16 16 17 14 11 7 7 5 7 2 3 7 7 9 14 16 23 29 34 35 36 35
57 56 57 57 48 45 41 37 38 32 36 44 41 37 28 28 23 24 21 18 22 18 14 13 12 10 7 2 3 6 6 7 9 11 13 18 25 27 30 30 30 31 33
63 67 63 59 55 50 48 44 39 45 49 51 38 35 27 28 32 28 28 20 22 21 18 11 10 9 5 6 5 6 1 9 11 13 20 24 27 28 28 28 28 30 34
60 55 53 59 60 61 59 57 52 44 44 46 53 51 44 35 32 28 27 23 16 16 20 19 13 10 11 8 4 2 3 12 12 19 22 22 22 24 22 26 29 29 30
53 54 59 51 48 48 49 51 61 59 57 54 53 57 57 62 53 42 35 33 34 29 25 24 19 19 19 16 10 9 11 9 15 20 18 18 12 16 21 24 24 25 26
56 54 54 54 52 52 54 57 57 63 65 65 65 72 71 72 70 66 55 43 40 39 37 32 26 21 26 19 17 15 12 13 16 14 10 9 13 15 19 22 26 28 27
58 70 69 65 60 59 56 53 50 47 49 50 49 44 40 43 56 71 70 63 46 42 39 34 28 24 28 24 20 18 11 11 14 12 4 8 11 14 17 22 26 29 24
43 40 43 46 50 52 48 45 43 45 46 42 38 36 36 29 34 39 49 52 50 46 49 43 35 33 32 24 24 21 10 2 7 6 2 9 12 16 21 25 29 31 23
39 38 34 35 39 45 47 46 50 48 42 39 37 32 30 27 25 30 37 43 44 46 50 42 41 36 37 25 22 22 18 9 7 6 3 9 15 20 20 27 29 30 27
39 39 35 36 35 36 36 39 39 42 40 37 32 30 28 28 23 23 31 42 42 44 49 42 34 36 32 33 31 28 23 16 13 11 5 8 18 22 25 28 25 26 27
41 37 37 34 35 34 34 36 37 36 37 36 33 31 27 29 27 26 23 41 46 49 44 45 45 38 36 36 39 30 29 23 20 14 6 10 18 19 18 21 25 29 32
35 38 32 31 34 33 29 26 27 31 32 35 36 33 24 24 18 21 26 34 44 55 55 50 54 35 36 31 31 35 30 33 28 19 12 7 16 17 21 25 38 38 34
37 37 27 27 29 26 22 26 29 32 33 33 36 34 36 24 21 15 23 33 42 51 41 43 33 33 26 28 28 39 37 37 27 23 14 11 13 15 22 36 37 39 44
36 33 29 27 31 30 28 25 26 27 31 33 31 30 34 34 23 19 22 25 52 47 46 36 23 16 9 23 22 27 27 30 25 24 18 16 15 12 18 29 35 40 45
36 32 30 30 28 31 27 22 25 27 30 29 30 32 32 30 29 26 26 30 36 49 43 34 18 18 18 12 13 17 33 39 34 33 20 14 10 8 12 22 28 42 45
31 30 30 31 32 30 27 22 24 25 22 20 26 29 35 30 31 34 38 38 37 42 38 37 37 27 26 18 7 11 34 44 43 33 20 16 11 5 6 15 23 36 41
Wind_Direction_850mb
270 285 287 286 288 279 275 275 270 255 256 266 284 285 274 283 299 300 283 294 283 271 282 297 281 277 283 283 268 287 295 290 288 286 285 286 287 289 297 290 286 288 289
306 304 296 290 283 278 274 273 267 263 261 268 276 281 278 276 275 279 283 301 299 273 275 272 262 284 313 285 288 283 277 281 285 285 285 282 286 293 297 280 284 283 283
323 313 295 278 267 267 267 264 261 252 254 264 270 277 281 279 281 279 278 274 281 273 274 295 268 261 285 292 288 279 279 280 285 283 284 292 291 288 272 272 281 271 277
296 291 300 292 279 270 263 255 253 259 259 263 267 272 287 281 285 287 289 287 279 278 279 297 284 264 286 266 274 271 277 281 286 294 288 282 287 282 260 271 261 254 267
271 271 272 256 271 268 250 251 263 268 267 266 266 282 311 317 306 303 309 309 288 262 264 243 240 252 245 269 284 275 274 285 277 272 263 266 255 185 251 271 253 264 278
284 269 252 236 222 202 207 237 276 299 318 310 302 299 309 314 317 321 331 354 19 42 81 137 195 228 273 275 279 266 280 282 285 278 267 256 216 236 263 274 264 276 277
287 281 275 252 217 217 250 295 336 325 325 324 329 321 332 170 305 314 22 11 7 0 352 296 270 245 259 274 274 276 289 295 293 285 259 211 219 258 286 287 271 274 285
313 297 289 284 271 276 288 295 315 300 295 306 321 323 315 318 172 330 341 320 321 315 298 286 264 261 274 297 302 309 307 314 308 299 169 222 259 277 280 274 268 283 288
304 308 304 298 293 287 283 289 293 282 289 300 292 281 282 276 304 210 310 299 301 288 284 277 247 320 330 326 316 317 334 30 57 79 262 283 288 282 269 276 284 296 295
291 297 300 302 302 288 278 278 293 263 275 282 274 266 259 266 308 263 320 299 293 271 241 255 277 299 319 331 357 31 108 64 31 11 347 303 283 283 290 294 300 303 302
284 288 288 288 295 293 284 293 267 260 258 258 255 251 259 256 269 285 322 256 261 251 248 238 255 284 292 334 35 114 67 339 329 313 306 300 300 299 302 302 304 305 306
271 273 280 278 278 278 283 283 280 270 254 259 262 273 271 270 253 267 282 272 274 263 244 235 257 270 271 259 86 121 330 324 338 317 306 312 313 306 310 311 311 312 308
280 274 271 266 267 266 265 270 271 272 276 268 264 267 268 266 262 260 269 264 251 242 244 255 244 221 217 180 110 132 344 303 301 310 310 316 322 316 319 321 317 312 308
278 271 269 266 263 264 259 260 259 260 259 260 263 265 266 264 263 260 262 260 268 244 242 243 241 193 204 205 170 217 273 296 305 304 306 309 321 320 322 319 315 312 312
283 275 268 259 260 260 258 260 261 260 259 262 263 263 263 264 267 264 258 254 252 261 258 251 223 201 213 224 225 238 254 280 296 298 302 305 326 334 333 333 327 331 331
272 264 260 260 261 264 268 271 272 267 271 268 269 271 269 263 260 262 258 254 253 251 253 249 229 221 215 223 230 238 265 274 286 291 308 338 350 344 338 340 337 332 329
282 270 267 265 260 259 265 267 267 263 263 267 263 264 267 262 252 251 255 256 257 240 232 225 225 213 211 219 240 243 240 329 321 322 17 2 7 355 354 351 344 338 340
294 290 276 265 258 258 255 255 257 261 262 259 260 254 255 256 245 237 239 244 245 231 225 220 209 193 205 205 230 233 243 268 312 285 51 46 23 14 9 358 353 355 360
302 295 285 274 264 262 263 262 256 256 255 259 253 251 250 243 240 237 231 226 223 225 219 206 210 201 197 214 230 231 243 229 219 204 151 53 30 23 9 1 10 12 9
301 295 291 283 278 268 258 256 253 247 246 251 245 249 241 235 246 245 234 222 216 216 210 197 225 198 191 202 218 227 217 210 193 182 145 48 31 36 31 24 21 13 11
304 291 287 281 279 270 268 254 252 248 242 240 240 241 240 242 248 251 248 215 209 210 202 189 201 193 196 200 214 217 224 209 190 183 138 56 48 39 33 26 24 24 15
301 302 292 285 274 267 264 250 248 248 242 239 241 241 236 218 217 236 235 213 205 206 200 195 204 205 206 205 208 217 222 197 187 184 163 86 75 48 36 37 34 20 18
303 303 288 283 276 272 260 249 245 244 242 242 243 236 220 213 223 237 217 184 191 195 199 200 204 212 199 192 213 212 221 213 198 175 156 110 102 55 30 35 29 23 26
309 293 294 288 272 265 258 248 246 245 241 237 232 227 216 208 220 216 193 166 161 158 153 161 166 168 185 206 231 233 227 196 180 166 149 150 123 57 35 37 29 25 24
304 299 291 282 278 266 258 252 231 226 231 224 227 215 199 200 212 204 190 170 155 158 171 179 185 179 178 192 198 190 188 174 169 169 171 162 126 87 43 32 26 22 20
305 302 292 287 278 265 261 231 214 216 203 213 210 198 189 188 195 198 186 179 162 154 155 174 203 197 187 187 162 155 177 167 166 167 178 170 164 125 21 16 19 12 14